DLH44U EDDM-LFBO

Flight info

Callsign DLH44U
Flight time 1h 26m
Altitude 36000
Route ALG2S/26L ALG Y109 UMTEX/N0458F370 Y100 TRA DCT LUTIX DCT BENOT DCT NEMOS DCT NINTU DCT MEBAK DCT REPSI DCT LERGA/N0436F330 DCT MINSO DCT NARAK
Aircraft A388/J-SADE2E3FGHIJ3J4J5M1RWXY/LB1D1

Departure

Time 2026-05-05 18:08
Airport Munich Airport (EDDM)

Arrival

Time 2026-05-05 19:34
Airport Toulouse-Blagnac Airport (LFBO)
Time Latitude Longitude Altitude Speed Heading
2026-05-05 17:31 48.35339 11.80018 1484 ft 0 kts 263°
2026-05-05 17:55 48.35340 11.80037 1475 ft 4 kts 263°
2026-05-05 17:55 48.35343 11.80077 1475 ft 4 kts 263°
2026-05-05 17:55 48.35346 11.80109 1475 ft 4 kts 259°
2026-05-05 17:56 48.35354 11.80143 1475 ft 4 kts 234°
2026-05-05 17:56 48.35365 11.80157 1475 ft 4 kts 190°
2026-05-05 17:56 48.35386 11.80155 1475 ft 4 kts 173°
2026-05-05 17:56 48.35410 11.80151 1475 ft 1 kts 173°
2026-05-05 17:57 48.35410 11.80150 1475 ft 0 kts 173°
2026-05-05 18:01 48.35396 11.80153 1477 ft 10 kts 173°
2026-05-05 18:01 48.35305 11.80169 1490 ft 16 kts 173°
2026-05-05 18:01 48.35186 11.80191 1481 ft 17 kts 173°
2026-05-05 18:02 48.35140 11.80169 1478 ft 6 kts 251°
2026-05-05 18:02 48.35129 11.80057 1479 ft 15 kts 263°
2026-05-05 18:02 48.35114 11.79889 1486 ft 16 kts 263°
2026-05-05 18:02 48.35101 11.79731 1486 ft 13 kts 255°
2026-05-05 18:03 48.35034 11.79664 1483 ft 14 kts 178°
2026-05-05 18:03 48.34958 11.79675 1485 ft 11 kts 174°
2026-05-05 18:03 48.34866 11.79690 1477 ft 16 kts 173°
2026-05-05 18:03 48.34810 11.79773 1478 ft 11 kts 90°
2026-05-05 18:04 48.34819 11.79899 1487 ft 14 kts 82°
2026-05-05 18:04 48.34833 11.80072 1487 ft 19 kts 83°
2026-05-05 18:04 48.34848 11.80282 1482 ft 22 kts 84°
2026-05-05 18:04 48.34842 11.80490 1483 ft 13 kts 124°
2026-05-05 18:05 48.34752 11.80558 1477 ft 16 kts 172°
2026-05-05 18:05 48.34654 11.80571 1486 ft 10 kts 187°
2026-05-05 18:05 48.34614 11.80552 1484 ft 2 kts 211°
2026-05-05 18:05 48.34604 11.80541 1478 ft 0 kts 218°
2026-05-05 18:06 48.34603 11.80540 1478 ft 2 kts 218°
2026-05-05 18:06 48.34528 11.80451 1477 ft 12 kts 218°
2026-05-05 18:06 48.34479 11.80386 1477 ft 8 kts 244°
2026-05-05 18:07 48.34473 11.80349 1485 ft 0 kts 263°
2026-05-05 18:07 48.34472 11.80343 1486 ft 5 kts 263°
2026-05-05 18:07 48.34448 11.80034 1480 ft 70 kts 264°
2026-05-05 18:07 48.34360 11.78895 1481 ft 142 kts 263°
2026-05-05 18:08 48.34235 11.77277 1845 ft 159 kts 266°
2026-05-05 18:08 48.34150 11.75635 2596 ft 155 kts 269°
2026-05-05 18:08 48.34073 11.74049 3284 ft 153 kts 270°
2026-05-05 18:08 48.33992 11.72372 3637 ft 171 kts 266°
2026-05-05 18:09 48.33845 11.70474 4028 ft 196 kts 264°
2026-05-05 18:09 48.33650 11.68360 4681 ft 214 kts 263°
2026-05-05 18:09 48.33428 11.66038 5371 ft 228 kts 262°
2026-05-05 18:09 48.33206 11.63642 5996 ft 241 kts 262°
2026-05-05 18:10 48.33004 11.61028 6404 ft 260 kts 263°
2026-05-05 18:10 48.32811 11.58291 6657 ft 266 kts 263°
2026-05-05 18:10 48.32621 11.55558 6816 ft 267 kts 263°
2026-05-05 18:10 48.32422 11.52778 6874 ft 268 kts 263°
2026-05-05 18:11 48.32218 11.49978 7229 ft 270 kts 262°
2026-05-05 18:11 48.32011 11.47171 8179 ft 270 kts 262°
2026-05-05 18:11 48.31804 11.44366 9238 ft 271 kts 262°
2026-05-05 18:11 48.31591 11.41528 10182 ft 275 kts 262°
2026-05-05 18:12 48.31376 11.38656 11092 ft 278 kts 262°
2026-05-05 18:12 48.31160 11.35779 11944 ft 282 kts 262°
2026-05-05 18:12 48.30938 11.32826 12845 ft 285 kts 262°
2026-05-05 18:12 48.30599 11.29882 13674 ft 288 kts 252°
2026-05-05 18:13 48.29858 11.27075 14421 ft 290 kts 241°
2026-05-05 18:13 48.28783 11.24479 15030 ft 299 kts 236°
2026-05-05 18:13 48.28016 11.22696 15142 ft 313 kts 237°
2026-05-05 18:13 48.26810 11.19834 15370 ft 334 kts 237°
2026-05-05 18:14 48.25133 11.15815 16020 ft 347 kts 237°
2026-05-05 18:14 48.24271 11.13718 16475 ft 350 kts 240°
2026-05-05 18:14 48.23017 11.09213 17347 ft 357 kts 248°
2026-05-05 18:14 48.22424 11.06898 17791 ft 360 kts 248°
2026-05-05 18:15 48.21520 11.03374 18408 ft 363 kts 248°
2026-05-05 18:15 48.20606 10.99833 19021 ft 366 kts 247°
2026-05-05 18:15 48.19679 10.96260 19606 ft 369 kts 247°
2026-05-05 18:15 48.18740 10.92657 20162 ft 372 kts 247°
2026-05-05 18:16 48.17793 10.89034 20743 ft 375 kts 247°
2026-05-05 18:16 48.16834 10.85374 21314 ft 378 kts 246°
2026-05-05 18:16 48.15870 10.81697 21874 ft 381 kts 246°
2026-05-05 18:16 48.14894 10.77983 22428 ft 384 kts 246°
2026-05-05 18:17 48.13912 10.74249 23077 ft 384 kts 246°
2026-05-05 18:17 48.12928 10.70512 23592 ft 389 kts 246°
2026-05-05 18:17 48.11936 10.66757 23928 ft 395 kts 246°
2026-05-05 18:17 48.10925 10.62931 24438 ft 396 kts 246°
2026-05-05 18:18 48.09906 10.59083 24928 ft 399 kts 246°
2026-05-05 18:18 48.08879 10.55211 25423 ft 402 kts 246°
2026-05-05 18:18 48.07844 10.51315 25949 ft 404 kts 246°
2026-05-05 18:18 48.06800 10.47392 26466 ft 408 kts 245°
2026-05-05 18:19 48.05748 10.43446 27027 ft 411 kts 245°
2026-05-05 18:19 48.04685 10.39464 27582 ft 414 kts 245°
2026-05-05 18:19 48.03611 10.35454 28143 ft 417 kts 245°
2026-05-05 18:19 48.02528 10.31409 28709 ft 421 kts 245°
2026-05-05 18:20 48.01432 10.27330 29286 ft 424 kts 245°
2026-05-05 18:20 48.00327 10.23219 29885 ft 428 kts 245°
2026-05-05 18:20 47.99205 10.19058 30269 ft 434 kts 245°
2026-05-05 18:20 47.98089 10.14919 30938 ft 432 kts 245°
2026-05-05 18:21 47.96971 10.10776 31660 ft 431 kts 245°
2026-05-05 18:21 47.95844 10.06611 32133 ft 434 kts 245°
2026-05-05 18:21 47.94707 10.02421 32650 ft 437 kts 245°
2026-05-05 18:21 47.93562 9.98209 33187 ft 439 kts 245°
2026-05-05 18:22 47.92411 9.93982 33723 ft 441 kts 245°
2026-05-05 18:22 47.91252 9.89733 34158 ft 444 kts 245°
2026-05-05 18:22 47.90079 9.85440 34499 ft 449 kts 245°
2026-05-05 18:22 47.88896 9.81120 34938 ft 451 kts 245°
2026-05-05 18:23 47.87707 9.76784 35455 ft 452 kts 245°
2026-05-05 18:23 47.86527 9.72487 35808 ft 457 kts 245°
2026-05-05 18:23 47.85310 9.68068 35849 ft 461 kts 245°
2026-05-05 18:24 47.83349 9.59005 35853 ft 463 kts 255°
2026-05-05 18:24 47.82210 9.49544 35850 ft 461 kts 257°
2026-05-05 18:25 47.81085 9.40176 35860 ft 459 kts 257°
2026-05-05 18:25 47.79945 9.30826 35880 ft 460 kts 257°
2026-05-05 18:26 47.78799 9.21486 35844 ft 462 kts 257°
2026-05-05 18:26 47.77638 9.12085 35859 ft 463 kts 257°
2026-05-05 18:27 47.76466 9.02654 35865 ft 463 kts 257°
2026-05-05 18:27 47.75287 8.93241 35868 ft 464 kts 257°
2026-05-05 18:28 47.73500 8.79086 35864 ft 465 kts 256°
2026-05-05 18:28 47.72304 8.69694 35874 ft 466 kts 256°
2026-05-05 18:29 47.71092 8.60243 35878 ft 466 kts 256°
2026-05-05 18:29 47.69827 8.50802 35883 ft 465 kts 253°
2026-05-05 18:30 47.67588 8.41870 35902 ft 460 kts 241°
2026-05-05 18:30 47.64177 8.33844 35896 ft 459 kts 232°
2026-05-05 18:31 47.60437 8.26151 35891 ft 460 kts 233°
2026-05-05 18:31 47.56735 8.18507 35900 ft 460 kts 233°
2026-05-05 18:32 47.52993 8.10824 35897 ft 460 kts 233°
2026-05-05 18:32 47.49251 8.03170 35907 ft 458 kts 233°
2026-05-05 18:33 47.45507 7.95533 35900 ft 458 kts 233°
2026-05-05 18:33 47.41763 7.87915 35894 ft 458 kts 233°
2026-05-05 18:34 47.38041 7.80364 35880 ft 457 kts 233°
2026-05-05 18:34 47.34294 7.72782 35887 ft 457 kts 233°
2026-05-05 18:35 47.30544 7.65214 35898 ft 456 kts 233°
2026-05-05 18:35 47.26799 7.57669 35899 ft 455 kts 233°
2026-05-05 18:36 47.23044 7.50140 35895 ft 455 kts 233°
2026-05-05 18:36 47.19314 7.42682 35897 ft 456 kts 233°
2026-05-05 18:37 47.15543 7.35176 35888 ft 455 kts 232°
2026-05-05 18:37 47.11600 7.27908 35878 ft 455 kts 230°
2026-05-05 18:38 47.07630 7.20689 35883 ft 454 kts 230°
2026-05-05 18:38 47.03678 7.13454 35896 ft 454 kts 231°
2026-05-05 18:39 46.99731 7.06230 35888 ft 454 kts 230°
2026-05-05 18:39 46.95780 6.99016 35900 ft 453 kts 230°
2026-05-05 18:40 46.91856 6.91869 35878 ft 453 kts 230°
2026-05-05 18:40 46.87895 6.84686 35876 ft 453 kts 230°
2026-05-05 18:41 46.83923 6.77508 35874 ft 453 kts 230°
2026-05-05 18:41 46.79956 6.70354 35877 ft 453 kts 230°
2026-05-05 18:42 46.75990 6.63219 35914 ft 452 kts 230°
2026-05-05 18:42 46.72021 6.56100 35918 ft 452 kts 230°
2026-05-05 18:43 46.68049 6.48992 35930 ft 452 kts 230°
2026-05-05 18:43 46.64090 6.41926 35882 ft 453 kts 230°
2026-05-05 18:44 46.60101 6.34824 35886 ft 453 kts 230°
2026-05-05 18:44 46.56101 6.27721 35889 ft 453 kts 230°
2026-05-05 18:45 46.52123 6.20674 35896 ft 453 kts 230°
2026-05-05 18:45 46.48119 6.13601 35896 ft 454 kts 230°
2026-05-05 18:46 46.44107 6.06533 35898 ft 454 kts 230°
2026-05-05 18:46 46.40085 5.99466 35883 ft 455 kts 230°
2026-05-05 18:47 46.36052 5.92395 35893 ft 454 kts 230°
2026-05-05 18:47 46.32044 5.85388 35897 ft 455 kts 230°
2026-05-05 18:48 46.28009 5.78350 35897 ft 455 kts 230°
2026-05-05 18:48 46.23962 5.71311 35897 ft 455 kts 230°
2026-05-05 18:49 46.19917 5.64291 35912 ft 454 kts 230°
2026-05-05 18:49 46.15870 5.57285 35912 ft 454 kts 230°
2026-05-05 18:50 46.12734 5.51214 35885 ft 454 kts 234°
2026-05-05 18:50 46.08576 5.42486 35887 ft 455 kts 234°
2026-05-05 18:51 46.04972 5.34977 35880 ft 455 kts 234°
2026-05-05 18:51 46.01367 5.27501 35886 ft 454 kts 234°
2026-05-05 18:52 45.97754 5.20029 35874 ft 454 kts 234°
2026-05-05 18:52 45.94161 5.12615 35872 ft 455 kts 234°
2026-05-05 18:53 45.90527 5.05137 35839 ft 456 kts 234°
2026-05-05 18:53 45.86885 4.97662 35864 ft 457 kts 234°
2026-05-05 18:54 45.83232 4.90187 35875 ft 457 kts 234°
2026-05-05 18:54 45.79589 4.82749 35878 ft 457 kts 234°
2026-05-05 18:55 45.75922 4.75283 35880 ft 458 kts 234°
2026-05-05 18:55 45.72267 4.67862 35846 ft 459 kts 234°
2026-05-05 18:56 45.68572 4.60373 35850 ft 460 kts 233°
2026-05-05 18:56 45.64892 4.52937 35857 ft 460 kts 234°
2026-05-05 18:57 45.61181 4.45457 35860 ft 461 kts 234°
2026-05-05 18:57 45.57465 4.37986 35856 ft 461 kts 233°
2026-05-05 18:58 45.53810 4.30655 35856 ft 444 kts 233°
2026-05-05 18:58 45.50225 4.23487 35856 ft 444 kts 233°
2026-05-05 18:59 45.46658 4.16381 35859 ft 443 kts 233°
2026-05-05 18:59 45.43070 4.09249 35865 ft 443 kts 233°
2026-05-05 19:00 45.39471 4.02112 35875 ft 443 kts 233°
2026-05-05 19:00 45.35869 3.94987 35882 ft 443 kts 233°
2026-05-05 19:01 45.32269 3.87885 35892 ft 443 kts 233°
2026-05-05 19:01 45.28691 3.80842 35892 ft 443 kts 233°
2026-05-05 19:02 45.25082 3.73753 35882 ft 443 kts 233°
2026-05-05 19:02 45.21564 3.66614 35885 ft 443 kts 234°
2026-05-05 19:03 45.18046 3.59432 35894 ft 443 kts 234°
2026-05-05 19:03 45.14513 3.52271 35900 ft 443 kts 234°
2026-05-05 19:04 45.10973 3.45124 35911 ft 443 kts 234°
2026-05-05 19:04 45.08027 3.39193 35911 ft 443 kts 234°
2026-05-05 19:05 45.03903 3.30912 35908 ft 442 kts 234°
2026-05-05 19:05 45.00355 3.23805 35913 ft 442 kts 234°
2026-05-05 19:06 44.97400 3.17899 35915 ft 442 kts 234°
2026-05-05 19:06 44.93843 3.10805 35925 ft 442 kts 234°
2026-05-05 19:07 44.90288 3.03733 35925 ft 442 kts 234°
2026-05-05 19:07 44.86727 2.96667 35910 ft 442 kts 234°
2026-05-05 19:08 44.83201 2.89574 35919 ft 442 kts 236°
2026-05-05 19:08 44.79906 2.82313 35916 ft 442 kts 237°
2026-05-05 19:09 44.76590 2.75030 35923 ft 442 kts 236°
2026-05-05 19:09 44.73243 2.67775 35928 ft 442 kts 236°
2026-05-05 19:10 44.71558 2.64139 35793 ft 445 kts 236°
2026-05-05 19:10 44.69870 2.60501 35560 ft 444 kts 236°
2026-05-05 19:10 44.68181 2.56867 35110 ft 444 kts 236°
2026-05-05 19:10 44.66502 2.53256 34642 ft 439 kts 236°
2026-05-05 19:11 44.64834 2.49675 34101 ft 436 kts 236°
2026-05-05 19:11 44.63184 2.46135 33502 ft 431 kts 236°
2026-05-05 19:11 44.61548 2.42631 32973 ft 426 kts 235°
2026-05-05 19:11 44.59930 2.39169 32373 ft 422 kts 235°
2026-05-05 19:12 44.58328 2.35745 31835 ft 417 kts 235°
2026-05-05 19:12 44.56770 2.32419 31306 ft 411 kts 235°
2026-05-05 19:12 44.55202 2.29077 30743 ft 408 kts 234°
2026-05-05 19:12 44.53644 2.25761 30077 ft 408 kts 235°
2026-05-05 19:13 44.52086 2.22448 29473 ft 404 kts 235°
2026-05-05 19:13 44.50550 2.19185 28834 ft 400 kts 235°
2026-05-05 19:13 44.49025 2.15948 28200 ft 396 kts 234°
2026-05-05 19:13 44.47509 2.12734 27504 ft 395 kts 234°
2026-05-05 19:14 44.46007 2.09553 27038 ft 389 kts 234°
2026-05-05 19:14 44.44515 2.06398 26502 ft 387 kts 234°
2026-05-05 19:14 44.43035 2.03272 25974 ft 384 kts 234°
2026-05-05 19:14 44.41566 2.00171 25449 ft 381 kts 233°
2026-05-05 19:15 44.40105 1.97090 24924 ft 378 kts 233°
2026-05-05 19:15 44.38650 1.94027 24408 ft 378 kts 233°
2026-05-05 19:15 44.37210 1.90999 23893 ft 377 kts 233°
2026-05-05 19:15 44.35763 1.87958 23344 ft 374 kts 233°
2026-05-05 19:16 44.34328 1.84946 22806 ft 369 kts 233°
2026-05-05 19:16 44.32915 1.81982 22294 ft 364 kts 233°
2026-05-05 19:16 44.31514 1.79046 21802 ft 362 kts 234°
2026-05-05 19:16 44.30016 1.76257 21297 ft 357 kts 227°
2026-05-05 19:17 44.28268 1.73825 20799 ft 353 kts 219°
2026-05-05 19:17 44.26315 1.71777 20319 ft 350 kts 213°
2026-05-05 19:17 44.24294 1.69889 19826 ft 348 kts 214°
2026-05-05 19:17 44.22304 1.67990 19331 ft 346 kts 214°
2026-05-05 19:18 44.20323 1.66089 18869 ft 345 kts 214°
2026-05-05 19:18 44.18349 1.64195 18369 ft 343 kts 214°
2026-05-05 19:18 44.16392 1.62321 17851 ft 340 kts 214°
2026-05-05 19:18 44.14469 1.60484 17383 ft 339 kts 214°
2026-05-05 19:19 44.12503 1.58608 16889 ft 336 kts 215°
2026-05-05 19:19 44.10600 1.56795 16422 ft 335 kts 215°
2026-05-05 19:19 44.08679 1.54967 15965 ft 333 kts 215°
2026-05-05 19:19 44.06765 1.53146 15479 ft 335 kts 215°
2026-05-05 19:20 44.04809 1.51286 15003 ft 343 kts 215°
2026-05-05 19:20 44.02836 1.49411 14514 ft 343 kts 215°
2026-05-05 19:20 44.00866 1.47542 14031 ft 341 kts 215°
2026-05-05 19:20 43.98879 1.45850 13810 ft 329 kts 207°
2026-05-05 19:21 43.96789 1.44717 13676 ft 316 kts 198°
2026-05-05 19:21 43.94703 1.44115 13550 ft 304 kts 191°
2026-05-05 19:21 43.92653 1.43659 13342 ft 294 kts 192°
2026-05-05 19:21 43.90643 1.43181 12936 ft 293 kts 192°
2026-05-05 19:22 43.88638 1.42694 12519 ft 291 kts 192°
2026-05-05 19:22 43.86646 1.42211 12101 ft 290 kts 192°
2026-05-05 19:22 43.84663 1.41739 11707 ft 288 kts 190°
2026-05-05 19:22 43.82657 1.41868 11278 ft 292 kts 166°
2026-05-05 19:23 43.80854 1.43172 10863 ft 295 kts 144°
2026-05-05 19:23 43.79247 1.44951 10453 ft 295 kts 144°
2026-05-05 19:23 43.77642 1.46703 10093 ft 292 kts 144°
2026-05-05 19:23 43.76074 1.48400 9988 ft 280 kts 144°
2026-05-05 19:24 43.74562 1.50028 9855 ft 271 kts 144°
2026-05-05 19:24 43.73083 1.51618 9539 ft 268 kts 144°
2026-05-05 19:24 43.71613 1.53195 9179 ft 268 kts 144°
2026-05-05 19:24 43.70136 1.54778 8816 ft 268 kts 144°
2026-05-05 19:25 43.68670 1.56352 8493 ft 266 kts 144°
2026-05-05 19:25 43.67211 1.57918 8189 ft 263 kts 144°
2026-05-05 19:25 43.65794 1.59440 8075 ft 254 kts 144°
2026-05-05 19:25 43.64404 1.60931 7802 ft 253 kts 144°
2026-05-05 19:26 43.63016 1.62414 7516 ft 251 kts 146°
2026-05-05 19:26 43.61446 1.63374 7185 ft 246 kts 175°
2026-05-05 19:26 43.59760 1.63254 6859 ft 243 kts 191°
2026-05-05 19:26 43.58086 1.62936 6589 ft 242 kts 190°
2026-05-05 19:27 43.56411 1.62641 6307 ft 242 kts 190°
2026-05-05 19:27 43.54741 1.62358 6033 ft 241 kts 189°
2026-05-05 19:27 43.53087 1.62084 5772 ft 242 kts 189°
2026-05-05 19:27 43.51415 1.61809 5511 ft 240 kts 189°
2026-05-05 19:28 43.49764 1.61507 5252 ft 237 kts 197°
2026-05-05 19:28 43.48357 1.60452 5010 ft 227 kts 229°
2026-05-05 19:28 43.47627 1.58616 4838 ft 217 kts 259°
2026-05-05 19:28 43.47341 1.56585 4592 ft 216 kts 262°
2026-05-05 19:29 43.47100 1.54563 4374 ft 209 kts 269°
2026-05-05 19:29 43.47435 1.52693 4156 ft 201 kts 301°
2026-05-05 19:29 43.48343 1.51265 3902 ft 191 kts 317°
2026-05-05 19:29 43.49356 1.50188 3630 ft 177 kts 322°
2026-05-05 19:30 43.50346 1.49190 3397 ft 175 kts 320°
2026-05-05 19:30 43.51320 1.48178 3171 ft 176 kts 321°
2026-05-05 19:30 43.52295 1.47167 2918 ft 175 kts 320°
2026-05-05 19:30 43.53259 1.46171 2685 ft 175 kts 320°
2026-05-05 19:31 43.54235 1.45157 2459 ft 175 kts 320°
2026-05-05 19:31 43.55185 1.44176 2220 ft 164 kts 320°
2026-05-05 19:31 43.56052 1.43274 2001 ft 152 kts 320°
2026-05-05 19:31 43.56870 1.42430 1797 ft 138 kts 319°
2026-05-05 19:32 43.57605 1.41662 1619 ft 130 kts 318°
2026-05-05 19:32 43.58334 1.40910 1441 ft 131 kts 320°
2026-05-05 19:32 43.59063 1.40152 1245 ft 132 kts 320°
2026-05-05 19:32 43.59804 1.39380 1056 ft 136 kts 319°
2026-05-05 19:33 43.60569 1.38584 850 ft 139 kts 322°
2026-05-05 19:33 43.61347 1.37775 679 ft 140 kts 321°
2026-05-05 19:33 43.62130 1.36967 510 ft 137 kts 322°
2026-05-05 19:33 43.62769 1.36299 499 ft 96 kts 323°
2026-05-05 19:34 43.63223 1.35828 499 ft 68 kts 323°
2026-05-05 19:34 43.63459 1.35583 499 ft 19 kts 323°
2026-05-05 19:34 43.63541 1.35503 499 ft 8 kts 337°
2026-05-05 19:35 43.63649 1.35630 499 ft 16 kts 54°
2026-05-05 19:35 43.63714 1.35749 499 ft 17 kts 52°
2026-05-05 19:35 43.63774 1.35857 499 ft 10 kts 52°
2026-05-05 19:35 43.63803 1.35909 499 ft 3 kts 55°
2026-05-05 19:36 43.63814 1.35952 499 ft 7 kts 97°
2026-05-05 19:36 43.63782 1.36028 499 ft 12 kts 142°
2026-05-05 19:36 43.63703 1.36108 499 ft 16 kts 142°
2026-05-05 19:36 43.63609 1.36209 499 ft 19 kts 141°
2026-05-05 19:37 43.63499 1.36323 499 ft 21 kts 143°
2026-05-05 19:37 43.63398 1.36428 499 ft 15 kts 143°
2026-05-05 19:37 43.63304 1.36524 499 ft 18 kts 143°
2026-05-05 19:37 43.63220 1.36610 499 ft 14 kts 143°
2026-05-05 19:38 43.63136 1.36697 499 ft 16 kts 143°
2026-05-05 19:38 43.63040 1.36797 499 ft 18 kts 143°
2026-05-05 19:38 43.62946 1.36896 499 ft 17 kts 143°
2026-05-05 19:38 43.62842 1.37004 499 ft 20 kts 143°
2026-05-05 19:39 43.62728 1.37123 499 ft 21 kts 143°
2026-05-05 19:39 43.62616 1.37240 499 ft 18 kts 143°
2026-05-05 19:39 43.62518 1.37341 499 ft 17 kts 143°
2026-05-05 19:39 43.62424 1.37438 499 ft 10 kts 143°
2026-05-05 19:40 43.62370 1.37495 499 ft 8 kts 143°
2026-05-05 19:40 43.62353 1.37540 499 ft 6 kts 78°
2026-05-05 19:40 43.62373 1.37606 499 ft 6 kts 70°
2026-05-05 19:40 43.62381 1.37638 499 ft 4 kts 70°
2026-05-05 19:41 43.62385 1.37654 499 ft 2 kts 70°
2026-05-05 19:41 43.62386 1.37655 499 ft 0 kts 70°